Location: Bailey Inglish Elementary School
(33.5826°N, 96.1780°W)
Time: 22:32:09
(UTC+00:00)

Envisat - Visible Passes

Search period start: 19 June 2024 00:00
Search period end: 29 June 2024 00:00
Orbit: 762 x 764 km, 98.3° (Epoch: 19 June)

Date Brightness Start Highest point End Pass type
(mag) Time Alt. Az. Time Alt. Az. Time Alt. Az.
19 Jun 2.9 09:38:40 10° NNE 09:43:45 90° E 09:47:28 19° SSW visible
20 Jun 4.2 09:01:41 10° NNE 09:06:20 36° E 09:09:38 17° SSE visible
20 Jun 4.4 10:41:15 10° NNW 10:45:01 22° WNW 10:48:47 10° WSW visible
21 Jun 5.4 08:25:57 10° ENE 08:28:44 15° E 08:31:30 10° SE visible
21 Jun 3.3 10:03:01 10° N 10:07:55 50° WNW 10:11:57 15° SW visible
22 Jun 3.2 09:25:34 10° NNE 09:30:37 66° ESE 09:34:07 20° S visible
23 Jun 4.7 08:48:53 10° NE 08:53:09 27° E 08:56:17 15° SE visible
23 Jun 4.1 10:27:41 10° NNW 10:31:59 29° WNW 10:36:17 10° SW visible
24 Jun 5.7 08:14:48 10° E 08:15:28 10° E 08:16:07 10° E visible
24 Jun 3.0 09:49:46 10° N 09:54:49 69° WNW 09:58:35 18° SSW visible
25 Jun 3.7 09:12:34 10° NNE 09:17:27 48° E 09:20:45 20° SSE visible
26 Jun 5.1 08:36:17 10° NE 08:39:54 20° E 08:42:55 12° SE visible
26 Jun 3.7 10:14:16 10° N 10:18:56 38° WNW 10:23:04 13° SW visible
27 Jun 3.0 09:36:36 10° NNE 09:41:42 87° ESE 09:45:12 20° SSW visible
28 Jun 4.3 08:59:39 10° NNE 09:04:17 35° E 09:07:22 18° SSE visible
28 Jun 4.4 10:39:07 10° NNW 10:42:58 22° WNW 10:46:48 10° WSW visible
